Home   Weather   Exeter   Past weeks

Flag for United Kingdom Past Weather in Exeter, England, United Kingdom — Yesterday and Last 2 Weeks

41 °F


Feels Like: 41 °F
Forecast: 42 / 54 °F
Wind: 2 mph from North

Location: Exeter Airport

Current Time: Oct 22, 2016 at 10:39:40 PM

Latest Report: Oct 22, 2016 at 10:20 PM

Visibility: 10 mi

Pressure: 29.92 "Hg

Humidity: 100%

Dew Point: 41 °F

Location of ExeterLocation

Past Weather in Exeter — Graph


Exeter Temperature Yesterday

Maximum temperature yesterday: 57 °F (at 2:50 PM)
Minimum temperature yesterday: 34 °F (at 7:50 AM)
Average temperature yesterday: 44 °F

High & Low Weather Summary for the Past Weeks

High61 °F (Oct 12, 2:20 PM)100% (Oct 8, 6:50 AM)30.39 "Hg (Oct 8, 6:50 AM)
Low32 °F (Oct 22, 7:20 AM)51% (Oct 9, 1:50 PM)29.59 "Hg (Oct 14, 9:50 PM)
Average50 °F82%30.07 "Hg
* Reported Oct 7 9:20 PM — Oct 22 9:20 PM, Exeter, Weather by CustomWeather, © 2016

Note: Actual official high and low records may vary slightly from our data, if they occured in-between our weather recording intervals... More about our weather records


Exeter Weather History for the Previous 24 Hours

Scroll right to see more
Time TempWeatherWind HumidityBarometerVisibility
9:20 PM
Sat, Oct 22
41 °FClear.5 mph93%29.95 "Hg10 mi
8:50 PM41 °FClear.5 mph93%29.95 "Hg10 mi
8:20 PM43 °FClear.5 mph93%29.95 "Hg10 mi
7:50 PM45 °FClear.3 mph87%29.95 "Hg10 mi
7:20 PM45 °FClear.3 mph87%29.95 "Hg10 mi
6:50 PM46 °FClear.6 mph87%29.95 "Hg10 mi
6:20 PM48 °FClear.5 mph82%29.95 "Hg10 mi
5:50 PM50 °FPassing clouds.6 mph76%29.95 "HgN/A
5:20 PM52 °FPassing clouds.10 mph77%29.95 "HgN/A
4:50 PM52 °FPassing clouds.10 mph77%29.95 "HgN/A
4:20 PM52 °FPassing clouds.10 mph77%29.95 "HgN/A
3:50 PM52 °FPassing clouds.12 mph77%29.98 "HgN/A
3:20 PM52 °FPassing clouds.9 mph77%29.98 "HgN/A
2:50 PM52 °FPassing clouds.9 mph77%29.98 "HgN/A
2:20 PM52 °FPassing clouds.12 mph77%29.98 "HgN/A
1:50 PM52 °FPassing clouds.12 mph77%30.01 "HgN/A
1:20 PM52 °FPassing clouds.10 mph77%30.01 "HgN/A
12:50 PM52 °FPassing clouds.12 mph77%30.01 "HgN/A
12:20 PM50 °FPassing clouds.9 mph82%30.01 "HgN/A
11:50 AM50 °FPassing clouds.10 mph82%30.01 "HgN/A
11:20 AM48 °FPassing clouds.12 mph94%30.01 "HgN/A
10:50 AM48 °FPassing clouds.10 mph94%30.01 "Hg5 mi
10:20 AM45 °FPassing clouds.5 mph100%30.01 "Hg4 mi
9:50 AM41 °FClear.5 mph100%30.04 "Hg4 mi
9:20 AM37 °FClear.No wind100%30.04 "Hg4 mi
8:50 AM36 °FClear.No wind93%30.04 "Hg4 mi
8:20 AM34 °FFog.No wind100%30.04 "Hg4 mi
7:50 AM32 °FFog.No wind100%30.04 "Hg4 mi
7:20 AM32 °FClear.No wind100%30.04 "Hg5 mi
6:50 AM34 °FClear.No wind93%30.04 "Hg10 mi
6:20 AM34 °FClear.No wind93%30.04 "Hg10 mi
12:20 AM39 °FPassing clouds.3 mph93%30.09 "Hg4 mi
11:50 PM
Fri, Oct 21
37 °FPassing clouds.3 mph93%30.09 "Hg4 mi
11:20 PM39 °FPassing clouds.3 mph93%30.09 "HgN/A
10:50 PM39 °FPassing clouds.3 mph100%30.09 "HgN/A
10:20 PM41 °FPassing clouds.3 mph93%30.12 "HgN/A
Weather by CustomWeather, © 2016

See weather overviewHow to use our weather pages